Regional Weather Roundup
Issued by NWS State College, PA

Home | Current Version | Previous Version | Text Only | Print | Product List | Glossary On
Versions: 1 2 3 4 5 6 7 8 9 10 11 12 13 14 15 16 17 18 19 20 21 22 23 24 25 26 27 28 29 30 31 32 33 34 35 36 37 38 39 40 41 42 43 44 45 46 47 48 49 50
000
ASUS41 KCTP 011403
RWRCTP

REGIONAL WEATHER ROUNDUP
NATIONAL WEATHER SERVICE STATE COLLEGE PA
900 AM EST SUN FEB 01 2015

Note: "fair" indicates few or no clouds below 12,000 feet with no
significant weather and/or obstructions to visibility.

* = STATION THAT DOES NOT REPORT PRECIPITATION /E.G. RAIN...SNOW...ETC/
    THUNDER OR FOG.

PAZ002>004-007>009-013>016-020>023-029>032-011500-
WESTERN PENNSYLVANIA

CITY           SKY/WX    TMP DP  RH WIND       PRES   REMARKS
ERIE           LGT SNOW  28  25  88 CALM      30.18R VSB 3/4
MEADVILLE      SNOW      25  22  88 CALM      30.13R VSB 1/4
FRANKLIN*      CLOUDY    23  19  86 S5        30.15R
NEW CASTLE     LGT SNOW  26  25  96 CALM      30.16F FOG
BEAVER COUNTY  LGT SNOW  27  25  93 S3        30.15
BUTLER*        CLOUDY    27  23  86 SE5       30.17S
PITTSBURGH INT LGT SNOW  27  26  96 S5        30.15F VSB 1
PITTSBURGH     LGT SNOW  26  22  84 S6        30.15F VSB 3/4
INDIANA*       MOSUNNY   27  25  93 SW5       30.19F FOG
LATROBE        LGT SNOW  28  28 100 SW9       30.19F
WASHINGTON CO* CLOUDY    27  25  93 CALM      30.17F
$$

PAZ004>006-010>012-017>019-024>028-033>037-041-042-045-046-049>053-011500-
CENTRAL PENNSYLVANIA

CITY           SKY/WX    TMP DP  RH WIND       PRES   REMARKS
BRADFORD       LGT SNOW  21  17  84 S3        30.09S FOG
DUBOIS         CLOUDY    22  19  89 CALM      30.12S FOG
CLEARFIELD     LGT SNOW  20  17  88 CALM      30.16R FOG
JOHNSTOWN      CLOUDY    24  21  88 SW6       30.10S FOG
ALTOONA        PTSUNNY   28  20  71 SW7       30.16S
STATE COLLEGE  LGT SNOW  27  19  74 CALM      30.17S
WILLIAMSPORT   CLOUDY    24  15  68 CALM      30.22S
SELINSGROVE    CLOUDY    25  17  72 CALM      30.23S
FT INDIANTOWN  PTSUNNY   24  14  66 CALM      30.24R
CAPITAL CITY   CLOUDY    27  19  72 E3        30.24S
HARRISBURG     FLURRIES  26  16  65 SE3       30.24S
YORK           CLOUDY    28  19  69 CALM      30.23S
$$

PAZ038>040-043-044-047-048-054-055-060>062-067>071-011500-
EASTERN PENNSYLVANIA

CITY           SKY/WX    TMP DP  RH WIND       PRES   REMARKS
SCRANTON       CLOUDY    25  14  63 SW7       30.17R
MOUNT POCONO   CLOUDY    20  13  74 W8        30.10R WCI  10
ALLENTOWN      CLOUDY    27  15  61 SW5       30.22S
QUAKERTOWN*    CLOUDY    28  16  59 W3        30.22S
READING        CLOUDY    27  15  61 CALM      30.23S
LANCASTER      CLOUDY    24  16  71 CALM      30.24S
COATESVILLE    MIX PCPN  28  19  69 W5        30.24R
POTTSTOWN      MOSUNNY   27  13  55 CALM      30.25S
BLUE BELL      CLOUDY    32  18  55 CALM      30.23S
DOYLESTOWN     CLOUDY    26  15  63 CALM      30.22S
WILLOW GROVE   NOT AVBL
NORTH PHILA    CLOUDY    30  14  51 CALM      30.26F
PHILADELPHIA   CLOUDY    28  15  58 SW8       30.27S
$$



USA.gov is the U.S. government's official web portal to all federal, state and local government web resources and services.